User: anonymous   Login
Location: NJAA Observatory
(40.6819°N, 74.8979°W)
Time: 16:04:41
(UTC-04:00)
Language:

Meteor 2-9 Rocket - Orbit

View from above orbital plane
View from above orbital plane
View from above satellite
View from above satellite

Ground track
Ground track

The orbit data is extracted from the following two-line orbital elements,

1 13719U 82116B   14303.33817576  .00000103  00000-0  46102-4 0  5447
2 13719 081.2567 221.5655 0071298 212.7765 287.6877 14.14491949644527
Epoch (UTC): 30 October 2014 08:06:58
Eccentricity: 0.0071298
inclination: 81.2567°
perigee height: 792 km
apogee height: 895 km
right ascension of ascending node: 221.5655°
argument of perigee: 212.7765°
revolutions per day: 14.14491949
mean anomaly at epoch: 287.6877°
orbit number at epoch: 64452

The dashed part of the orbit path shows where the satellite is in the earth's shadow,  

DLR